Regional Weather Roundup
Issued by NWS Charleston, WV

Home | Current Version | Previous Version | Graphics & Text | Print | Product List | Glossary On
Versions: 1 2 3 4 5 6 7 8 9 10 11 12 13 14 15 16 17 18 19 20 21 22 23 24 25 26 27 28 29 30 31 32 33 34 35 36 37 38 39 40 41 42 43 44 45 46 47 48 49 50
000
ASUS41 KRLX 220510
RWRRLX
West Virginia Regional Weather Roundup
National Weather Service Charleston WV
1200 AM EST MON DEC 22 2014

Note: "fair" indicates few or no clouds below 12,000 feet with no
significant weather and/or obstructions to visibility.

WVZ003-220600-
Northern Panhandle of West Virginia

CITY           SKY/WX    TMP DP  RH WIND       PRES   REMARKS
WHEELING       CLEAR     26  20  77 E7        30.16F
$$

WVZ009-220600-
Northwest West Virginia

CITY           SKY/WX    TMP DP  RH WIND       PRES   REMARKS
PARKERSBURG    PTCLDY    29  23  78 E5        30.18F
$$

WVZ006-220600-
Western West Virginia

CITY           SKY/WX    TMP DP  RH WIND       PRES   REMARKS
HUNTINGTON     MOCLDY    31  28  89 CALM      30.13S
$$

WVZ015-220600-
West Central West Virginia

CITY           SKY/WX    TMP DP  RH WIND       PRES   REMARKS
CHARLESTON     PTCLDY    29  25  85 CALM      30.13S
$$

WVZ022-031-220600-
North Central West Virginia

CITY           SKY/WX    TMP DP  RH WIND       PRES   REMARKS
CLARKSBURG     PTCLDY    26  23  88 N3        30.15F
MORGANTOWN     PTCLDY    31  21  66 E5        30.16F
$$

WVZ025-035-042-045-220600-
Southern West Virginia

CITY           SKY/WX    TMP DP  RH WIND       PRES   REMARKS
BECKLEY        CLEAR     36  30  79 SE13G23   30.11S
LOGAN            N/A     36  28  75 CALM      30.10S
BLUEFIELD      PTCLDY    38  31  76 SE9       30.11F
LEWISBURG      CLOUDY    37  30  77 CALM      30.18R
$$

WVZ047-220600-
Northern Mountains of West Virginia

CITY           SKY/WX    TMP DP  RH WIND       PRES   REMARKS
ELKINS         CLEAR     23  22  96 CALM      30.15F
$$

WVZ052-220600-
Eastern Panhandle of West Virginia

CITY           SKY/WX    TMP DP  RH WIND       PRES   REMARKS
MARTINSBURG    PTCLDY    26  19  74 CALM      30.30F
PETERSBURG     PTCLDY    24  23  96 CALM      30.27S FOG
$$



USA.gov is the U.S. government's official web portal to all federal, state and local government web resources and services.